Time,TemperatureF,DewpointF,PressureIn,WindDirection,WindDirectionDegrees,WindSpeedMPH,WindSpeedGustMPH,Humidity,HourlyPrecipIn,Conditions,Clouds,dailyrainin,SoftwareType,DateUTC
2013-08-17 00:00:00,79.2,73.6,30.01,North,0,0.0,0.0,83,0.16,,,0.18,WUHU216HW,2013-08-17 04:00:00,
2013-08-17 00:01:00,79.2,73.6,30.01,North,0,0.0,0.0,83,0.16,,,0.00,WUHU216HW,2013-08-17 04:01:00,
2013-08-17 00:06:00,79.2,74.0,30.01,North,0,0.0,0.0,84,0.15,,,0.01,WUHU216HW,2013-08-17 04:06:00,
2013-08-17 00:11:00,79.0,73.8,30.02,North,0,0.0,0.0,84,0.06,,,0.01,WUHU216HW,2013-08-17 04:11:00,
2013-08-17 00:16:00,79.0,73.8,30.03,North,0,0.0,0.0,84,0.02,,,0.01,WUHU216HW,2013-08-17 04:16:00,
2013-08-17 00:21:00,79.0,73.8,30.02,North,0,0.0,0.0,84,0.01,,,0.01,WUHU216HW,2013-08-17 04:21:00,
2013-08-17 00:26:00,78.8,73.6,30.01,North,0,0.0,0.0,84,0.01,,,0.01,WUHU216HW,2013-08-17 04:26:00,
2013-08-17 00:31:00,78.8,73.6,30.02,North,0,0.0,0.0,84,0.01,,,0.01,WUHU216HW,2013-08-17 04:31:00,
2013-08-17 00:36:00,78.7,73.4,30.02,North,0,0.0,0.0,84,0.01,,,0.01,WUHU216HW,2013-08-17 04:36:00,
2013-08-17 00:41:00,78.7,73.4,30.02,North,0,0.0,0.0,84,0.01,,,0.01,WUHU216HW,2013-08-17 04:41:00,
2013-08-17 00:46:00,78.7,73.4,30.03,North,0,0.0,0.0,84,0.02,,,0.02,WUHU216HW,2013-08-17 04:46:00,
2013-08-17 00:51:00,78.7,73.8,30.03,North,0,0.0,0.0,85,0.02,,,0.02,WUHU216HW,2013-08-17 04:51:00,
2013-08-17 00:56:00,78.8,74.0,30.03,North,0,0.0,0.0,85,0.03,,,0.03,WUHU216HW,2013-08-17 04:56:00,
2013-08-17 01:01:00,78.8,74.0,30.03,North,0,0.0,0.0,85,0.02,,,0.03,WUHU216HW,2013-08-17 05:01:00,
2013-08-17 01:06:00,78.8,74.0,30.03,North,0,0.0,0.0,85,0.03,,,0.04,WUHU216HW,2013-08-17 05:06:00,
2013-08-17 01:11:00,79.0,74.2,30.02,North,0,0.0,0.0,85,0.03,,,0.04,WUHU216HW,2013-08-17 05:11:00,
2013-08-17 01:16:00,78.8,74.0,30.02,North,0,0.0,0.0,85,0.03,,,0.04,WUHU216HW,2013-08-17 05:16:00,
2013-08-17 01:21:00,78.7,73.8,30.02,North,0,0.0,0.0,85,0.04,,,0.05,WUHU216HW,2013-08-17 05:21:00,
2013-08-17 01:26:00,78.7,73.8,30.02,North,0,0.0,0.0,85,0.04,,,0.05,WUHU216HW,2013-08-17 05:26:00,
2013-08-17 01:31:00,78.5,73.6,30.02,North,0,0.0,0.0,85,0.04,,,0.05,WUHU216HW,2013-08-17 05:31:00,
2013-08-17 01:36:00,78.5,73.6,30.01,North,0,0.0,0.0,85,0.04,,,0.05,WUHU216HW,2013-08-17 05:36:00,
2013-08-17 01:41:00,78.3,73.4,30.01,North,0,0.0,0.0,85,0.03,,,0.05,WUHU216HW,2013-08-17 05:41:00,
2013-08-17 01:46:00,78.1,73.3,30.01,North,0,0.0,0.0,85,0.03,,,0.05,WUHU216HW,2013-08-17 05:46:00,
2013-08-17 01:51:00,78.1,73.3,30.01,North,0,0.0,0.0,85,0.03,,,0.05,WUHU216HW,2013-08-17 05:51:00,
2013-08-17 01:56:00,78.1,73.6,30.01,North,0,0.0,0.0,86,0.02,,,0.05,WUHU216HW,2013-08-17 05:56:00,
2013-08-17 02:01:00,78.1,73.6,30.01,North,0,0.0,0.0,86,0.01,,,0.05,WUHU216HW,2013-08-17 06:01:00,
2013-08-17 02:06:00,78.1,73.6,30.01,North,0,0.0,0.0,86,0.01,,,0.05,WUHU216HW,2013-08-17 06:06:00,
2013-08-17 02:11:00,78.1,73.6,30.01,North,0,0.0,0.0,86,0.01,,,0.05,WUHU216HW,2013-08-17 06:11:00,
2013-08-17 02:16:00,78.1,73.6,30.01,North,0,0.0,0.0,86,0.01,,,0.05,WUHU216HW,2013-08-17 06:16:00,
2013-08-17 02:21:00,78.1,73.6,30.01,North,0,0.0,0.0,86,0.00,,,0.05,WUHU216HW,2013-08-17 06:21:00,
2013-08-17 02:26:00,78.1,73.6,30.00,North,0,0.0,0.0,86,0.00,,,0.05,WUHU216HW,2013-08-17 06:26:00,
2013-08-17 02:31:00,78.3,74.2,29.99,North,0,0.0,0.0,87,0.00,,,0.05,WUHU216HW,2013-08-17 06:31:00,
2013-08-17 02:36:00,78.1,74.0,30.00,North,0,0.0,0.0,87,0.00,,,0.05,WUHU216HW,2013-08-17 06:36:00,
2013-08-17 02:41:00,78.3,74.2,29.99,North,0,0.0,0.0,87,0.00,,,0.05,WUHU216HW,2013-08-17 06:41:00,
2013-08-17 02:46:00,78.3,74.2,30.00,North,0,0.0,0.0,87,0.00,,,0.05,WUHU216HW,2013-08-17 06:46:00,
2013-08-17 02:51:00,78.3,74.2,30.00,North,0,0.0,0.0,87,0.00,,,0.05,WUHU216HW,2013-08-17 06:51:00,
2013-08-17 02:56:00,78.1,74.0,29.99,North,0,0.0,0.0,87,0.00,,,0.05,WUHU216HW,2013-08-17 06:56:00,
2013-08-17 03:01:00,78.1,74.0,29.99,North,0,0.0,0.0,87,0.00,,,0.05,WUHU216HW,2013-08-17 07:01:00,
2013-08-17 03:06:00,78.1,74.0,29.99,North,0,0.0,0.0,87,0.00,,,0.05,WUHU216HW,2013-08-17 07:06:00,
2013-08-17 03:11:00,78.3,74.2,29.99,North,0,0.0,0.0,87,0.00,,,0.05,WUHU216HW,2013-08-17 07:11:00,
2013-08-17 03:16:00,78.3,74.2,30.00,North,0,0.0,0.0,87,0.00,,,0.05,WUHU216HW,2013-08-17 07:16:00,
2013-08-17 03:21:00,78.3,74.2,30.00,North,0,0.0,0.0,87,0.00,,,0.05,WUHU216HW,2013-08-17 07:21:00,
2013-08-17 03:26:00,78.3,74.2,29.99,North,0,0.0,0.0,87,0.00,,,0.05,WUHU216HW,2013-08-17 07:26:00,
2013-08-17 03:31:00,78.5,74.3,29.99,North,0,0.0,0.0,87,0.00,,,0.05,WUHU216HW,2013-08-17 07:31:00,
2013-08-17 03:36:00,78.5,74.3,29.99,North,0,0.0,0.0,87,0.00,,,0.05,WUHU216HW,2013-08-17 07:36:00,
2013-08-17 03:41:00,78.5,74.3,29.99,North,0,0.0,0.0,87,0.00,,,0.05,WUHU216HW,2013-08-17 07:41:00,
2013-08-17 03:46:00,78.5,74.3,29.99,North,0,0.0,0.0,87,0.00,,,0.05,WUHU216HW,2013-08-17 07:46:00,
2013-08-17 03:51:00,78.5,74.3,29.98,North,0,0.0,0.0,87,0.00,,,0.05,WUHU216HW,2013-08-17 07:51:00,
2013-08-17 03:56:00,78.5,74.7,29.99,North,0,0.0,0.0,88,0.00,,,0.05,WUHU216HW,2013-08-17 07:56:00,
2013-08-17 04:01:00,78.3,74.5,29.99,North,0,0.0,0.0,88,0.00,,,0.05,WUHU216HW,2013-08-17 08:01:00,
2013-08-17 04:06:00,78.3,74.5,29.99,North,0,0.0,0.0,88,0.00,,,0.05,WUHU216HW,2013-08-17 08:06:00,
2013-08-17 04:11:00,78.5,74.7,29.99,North,0,0.0,0.0,88,0.00,,,0.05,WUHU216HW,2013-08-17 08:11:00,
2013-08-17 04:16:00,78.5,74.7,29.98,North,0,0.0,0.0,88,0.01,,,0.06,WUHU216HW,2013-08-17 08:16:00,
2013-08-17 04:21:00,78.5,74.7,29.99,North,0,0.0,0.0,88,0.01,,,0.06,WUHU216HW,2013-08-17 08:21:00,
2013-08-17 04:26:00,78.5,74.7,29.99,North,0,0.0,0.0,88,0.01,,,0.06,WUHU216HW,2013-08-17 08:26:00,
2013-08-17 04:31:00,78.3,74.5,29.98,North,0,0.0,0.0,88,0.01,,,0.06,WUHU216HW,2013-08-17 08:31:00,
2013-08-17 04:36:00,78.5,74.7,29.98,North,0,0.0,0.0,88,0.01,,,0.06,WUHU216HW,2013-08-17 08:36:00,
2013-08-17 04:41:00,78.3,74.5,29.98,North,0,0.0,0.0,88,0.01,,,0.06,WUHU216HW,2013-08-17 08:41:00,
2013-08-17 04:46:00,78.3,74.5,29.98,North,0,0.0,0.0,88,0.01,,,0.06,WUHU216HW,2013-08-17 08:46:00,
2013-08-17 04:51:00,78.3,74.5,29.97,North,0,0.0,0.0,88,0.01,,,0.06,WUHU216HW,2013-08-17 08:51:00,
2013-08-17 04:56:00,78.3,74.5,29.97,North,0,0.0,0.0,88,0.01,,,0.06,WUHU216HW,2013-08-17 08:56:00,
2013-08-17 05:01:00,78.3,74.5,29.97,North,0,0.0,0.0,88,0.01,,,0.06,WUHU216HW,2013-08-17 09:01:00,
2013-08-17 05:06:00,78.1,74.3,29.96,North,0,0.0,0.0,88,0.01,,,0.06,WUHU216HW,2013-08-17 09:06:00,
2013-08-17 05:11:00,78.1,74.7,29.96,North,0,0.0,0.0,89,0.01,,,0.06,WUHU216HW,2013-08-17 09:11:00,
2013-08-17 05:16:00,78.1,74.7,29.97,North,0,0.0,0.0,89,0.00,,,0.06,WUHU216HW,2013-08-17 09:16:00,
2013-08-17 05:21:00,78.1,74.7,29.97,North,0,0.0,0.0,89,0.00,,,0.06,WUHU216HW,2013-08-17 09:21:00,
2013-08-17 05:26:00,78.3,74.9,29.97,North,0,0.0,0.0,89,0.00,,,0.06,WUHU216HW,2013-08-17 09:26:00,
2013-08-17 05:31:00,78.3,74.9,29.97,North,0,0.0,0.0,89,0.00,,,0.06,WUHU216HW,2013-08-17 09:31:00,
2013-08-17 05:36:00,78.5,75.1,29.97,North,0,0.0,0.0,89,0.00,,,0.06,WUHU216HW,2013-08-17 09:36:00,
2013-08-17 05:41:00,78.5,75.1,29.97,North,0,0.0,0.0,89,0.00,,,0.06,WUHU216HW,2013-08-17 09:41:00,
2013-08-17 05:46:00,78.5,75.1,29.97,North,0,0.0,0.0,89,0.00,,,0.06,WUHU216HW,2013-08-17 09:46:00,
2013-08-17 05:51:00,78.5,75.1,29.97,North,0,0.0,0.0,89,0.00,,,0.06,WUHU216HW,2013-08-17 09:51:00,
2013-08-17 05:56:00,78.5,75.1,29.98,North,0,0.0,0.0,89,0.00,,,0.06,WUHU216HW,2013-08-17 09:56:00,
2013-08-17 06:01:00,78.5,75.1,29.98,North,0,0.0,0.0,89,0.00,,,0.06,WUHU216HW,2013-08-17 10:01:00,
2013-08-17 06:06:00,78.5,75.1,29.98,North,0,0.0,0.0,89,0.00,,,0.06,WUHU216HW,2013-08-17 10:06:00,
2013-08-17 06:11:00,78.5,75.1,29.98,North,0,0.0,0.0,89,0.00,,,0.06,WUHU216HW,2013-08-17 10:11:00,
2013-08-17 06:16:00,78.5,75.1,29.98,North,0,0.0,0.0,89,0.00,,,0.06,WUHU216HW,2013-08-17 10:16:00,
2013-08-17 06:21:00,78.7,75.2,29.98,North,0,0.0,0.0,89,0.00,,,0.06,WUHU216HW,2013-08-17 10:21:00,
2013-08-17 06:26:00,78.7,75.2,29.98,North,0,0.0,0.0,89,0.00,,,0.06,WUHU216HW,2013-08-17 10:26:00,
2013-08-17 06:31:00,78.7,75.2,29.99,North,0,0.0,0.0,89,0.00,,,0.06,WUHU216HW,2013-08-17 10:31:00,
2013-08-17 06:36:00,78.8,75.4,29.99,North,0,0.0,0.0,89,0.00,,,0.06,WUHU216HW,2013-08-17 10:36:00,
2013-08-17 06:41:00,78.7,75.2,29.99,North,0,0.0,0.0,89,0.00,,,0.06,WUHU216HW,2013-08-17 10:41:00,
2013-08-17 06:46:00,78.7,75.2,29.99,North,0,0.0,0.0,89,0.00,,,0.06,WUHU216HW,2013-08-17 10:46:00,
2013-08-17 06:51:00,78.7,75.2,29.99,North,0,0.0,0.0,89,0.00,,,0.06,WUHU216HW,2013-08-17 10:51:00,
2013-08-17 06:56:00,78.8,75.4,29.99,North,0,0.0,0.0,89,0.00,,,0.06,WUHU216HW,2013-08-17 10:56:00,
2013-08-17 07:01:00,78.8,75.4,29.99,North,0,0.0,0.0,89,0.00,,,0.06,WUHU216HW,2013-08-17 11:01:00,
2013-08-17 07:06:00,78.8,75.4,29.99,North,0,0.0,0.0,89,0.00,,,0.06,WUHU216HW,2013-08-17 11:06:00,
2013-08-17 07:11:00,78.8,75.8,30.00,North,0,0.0,0.0,90,0.00,,,0.06,WUHU216HW,2013-08-17 11:11:00,
2013-08-17 07:16:00,78.8,75.8,30.00,North,0,0.0,0.0,90,0.00,,,0.06,WUHU216HW,2013-08-17 11:16:00,
2013-08-17 07:21:00,78.8,75.8,30.00,North,0,0.0,0.0,90,0.00,,,0.06,WUHU216HW,2013-08-17 11:21:00,
2013-08-17 07:26:00,78.8,75.8,30.00,North,0,0.0,0.0,90,0.00,,,0.06,WUHU216HW,2013-08-17 11:26:00,
2013-08-17 07:31:00,79.0,76.0,30.00,North,0,0.0,0.0,90,0.00,,,0.06,WUHU216HW,2013-08-17 11:31:00,
2013-08-17 07:36:00,79.0,76.0,30.01,North,0,0.0,0.0,90,0.00,,,0.06,WUHU216HW,2013-08-17 11:36:00,
2013-08-17 07:41:00,79.0,76.0,30.01,North,0,0.0,0.0,90,0.00,,,0.06,WUHU216HW,2013-08-17 11:41:00,
2013-08-17 07:46:00,79.2,76.2,30.01,North,0,0.0,0.0,90,0.00,,,0.06,WUHU216HW,2013-08-17 11:46:00,
2013-08-17 07:51:00,79.2,76.2,30.01,North,0,0.0,0.0,90,0.00,,,0.06,WUHU216HW,2013-08-17 11:51:00,
2013-08-17 07:56:00,79.2,76.2,30.01,North,0,0.0,0.0,90,0.00,,,0.06,WUHU216HW,2013-08-17 11:56:00,
2013-08-17 08:01:00,79.2,76.2,30.01,North,0,0.0,0.0,90,0.00,,,0.06,WUHU216HW,2013-08-17 12:01:00,
2013-08-17 08:06:00,79.2,76.2,30.01,North,0,0.0,0.0,90,0.00,,,0.06,WUHU216HW,2013-08-17 12:06:00,
2013-08-17 08:11:00,79.4,76.2,30.02,North,0,0.0,0.0,90,0.00,,,0.06,WUHU216HW,2013-08-17 12:11:00,
2013-08-17 08:16:00,79.4,76.2,30.02,North,0,0.0,0.0,90,0.00,,,0.06,WUHU216HW,2013-08-17 12:16:00,
2013-08-17 08:21:00,79.4,76.2,30.02,North,0,0.0,0.0,90,0.00,,,0.06,WUHU216HW,2013-08-17 12:21:00,
2013-08-17 08:26:00,79.6,76.4,30.02,North,0,0.0,0.0,90,0.00,,,0.06,WUHU216HW,2013-08-17 12:26:00,
2013-08-17 08:31:00,79.6,76.4,30.02,North,0,0.0,0.0,90,0.00,,,0.06,WUHU216HW,2013-08-17 12:31:00,
2013-08-17 08:36:00,79.6,76.4,30.02,North,0,0.0,0.0,90,0.00,,,0.06,WUHU216HW,2013-08-17 12:36:00,
2013-08-17 08:41:00,79.6,76.4,30.02,North,0,0.0,0.0,90,0.00,,,0.06,WUHU216HW,2013-08-17 12:41:00,
2013-08-17 08:46:00,79.6,76.4,30.02,North,0,0.0,0.0,90,0.00,,,0.06,WUHU216HW,2013-08-17 12:46:00,
2013-08-17 08:51:00,79.7,76.6,30.01,North,0,0.0,0.0,90,0.00,,,0.06,WUHU216HW,2013-08-17 12:51:00,
2013-08-17 08:56:00,79.9,76.8,30.02,North,0,0.0,0.0,90,0.00,,,0.06,WUHU216HW,2013-08-17 12:56:00,
2013-08-17 09:01:00,79.9,76.8,30.02,North,0,0.0,0.0,90,0.00,,,0.06,WUHU216HW,2013-08-17 13:01:00,
2013-08-17 09:06:00,79.9,76.8,30.02,North,0,0.0,0.0,90,0.00,,,0.06,WUHU216HW,2013-08-17 13:06:00,
2013-08-17 09:11:00,80.1,77.2,30.02,North,0,0.0,0.0,91,0.00,,,0.06,WUHU216HW,2013-08-17 13:11:00,
2013-08-17 09:16:00,80.3,77.4,30.02,North,0,0.0,0.0,91,0.00,,,0.06,WUHU216HW,2013-08-17 13:16:00,
2013-08-17 09:21:00,80.5,77.6,30.02,North,0,0.0,0.0,91,0.00,,,0.06,WUHU216HW,2013-08-17 13:21:00,
2013-08-17 09:26:00,80.8,78.0,30.02,North,0,0.0,0.0,91,0.00,,,0.06,WUHU216HW,2013-08-17 13:26:00,
2013-08-17 09:31:00,81.0,78.1,30.02,North,0,0.0,0.0,91,0.00,,,0.06,WUHU216HW,2013-08-17 13:31:00,
2013-08-17 09:36:00,81.4,78.5,30.02,North,0,0.0,0.0,91,0.00,,,0.06,WUHU216HW,2013-08-17 13:36:00,
2013-08-17 09:41:00,81.5,78.7,30.03,North,0,0.0,0.0,91,0.00,,,0.06,WUHU216HW,2013-08-17 13:41:00,
2013-08-17 09:46:00,81.9,78.7,30.03,North,0,0.0,0.0,90,0.00,,,0.06,WUHU216HW,2013-08-17 13:46:00,
2013-08-17 09:51:00,82.1,78.8,30.03,North,0,0.0,0.0,90,0.00,,,0.06,WUHU216HW,2013-08-17 13:51:00,
2013-08-17 09:56:00,82.4,79.2,30.03,North,0,0.0,0.0,90,0.00,,,0.06,WUHU216HW,2013-08-17 13:56:00,
2013-08-17 10:01:00,82.6,79.0,30.04,North,0,0.0,0.0,89,0.00,,,0.06,WUHU216HW,2013-08-17 14:01:00,
2013-08-17 10:06:00,83.0,79.0,30.04,North,0,0.0,0.0,88,0.00,,,0.06,WUHU216HW,2013-08-17 14:06:00,
2013-08-17 10:11:00,83.2,79.2,30.04,North,0,0.0,0.0,88,0.00,,,0.06,WUHU216HW,2013-08-17 14:11:00,
2013-08-17 10:16:00,83.5,79.6,30.04,North,0,0.0,0.0,88,0.00,,,0.06,WUHU216HW,2013-08-17 14:16:00,
2013-08-17 10:21:00,83.7,79.4,30.04,North,0,0.0,0.0,87,0.00,,,0.06,WUHU216HW,2013-08-17 14:21:00,
2013-08-17 10:26:00,83.9,79.2,30.04,North,0,0.0,0.0,86,0.00,,,0.06,WUHU216HW,2013-08-17 14:26:00,
2013-08-17 10:31:00,84.2,79.6,30.04,North,0,0.0,0.0,86,0.00,,,0.06,WUHU216HW,2013-08-17 14:31:00,
2013-08-17 10:36:00,84.8,80.1,30.04,North,0,0.0,0.0,86,0.00,,,0.06,WUHU216HW,2013-08-17 14:36:00,
2013-08-17 10:41:00,85.1,80.1,30.04,North,0,0.0,0.0,85,0.00,,,0.06,WUHU216HW,2013-08-17 14:41:00,
2013-08-17 10:46:00,85.7,80.3,30.04,North,0,0.0,0.0,84,0.00,,,0.06,WUHU216HW,2013-08-17 14:46:00,
2013-08-17 10:51:00,85.9,80.1,30.04,North,0,0.0,0.0,83,0.00,,,0.06,WUHU216HW,2013-08-17 14:51:00,
2013-08-17 10:56:00,85.9,79.7,30.04,North,0,0.0,0.0,82,0.00,,,0.06,WUHU216HW,2013-08-17 14:56:00,
2013-08-17 11:01:00,85.9,79.7,30.04,North,0,0.0,0.0,82,0.00,,,0.06,WUHU216HW,2013-08-17 15:01:00,
2013-08-17 11:06:00,86.0,79.9,30.04,North,0,0.0,0.0,82,0.00,,,0.06,WUHU216HW,2013-08-17 15:06:00,
2013-08-17 11:11:00,86.2,79.7,30.03,North,0,0.0,0.0,81,0.00,,,0.06,WUHU216HW,2013-08-17 15:11:00,
2013-08-17 11:16:00,86.4,79.6,30.03,North,0,0.0,0.0,80,0.00,,,0.06,WUHU216HW,2013-08-17 15:16:00,
2013-08-17 11:21:00,86.6,79.4,30.03,North,0,0.0,0.0,79,0.00,,,0.06,WUHU216HW,2013-08-17 15:21:00,
2013-08-17 11:26:00,86.8,79.6,30.03,North,0,0.0,0.0,79,0.00,,,0.06,WUHU216HW,2013-08-17 15:26:00,
2013-08-17 11:31:00,87.1,79.8,30.03,North,0,0.0,0.0,79,0.00,,,0.06,WUHU216HW,2013-08-17 15:31:00,
2013-08-17 11:36:00,87.5,80.2,30.03,North,0,0.0,0.0,79,0.00,,,0.06,WUHU216HW,2013-08-17 15:36:00,
2013-08-17 11:41:00,87.7,79.6,30.03,North,0,0.0,0.0,77,0.00,,,0.06,WUHU216HW,2013-08-17 15:41:00,
2013-08-17 11:46:00,87.8,79.4,30.03,North,0,0.0,0.0,76,0.00,,,0.06,WUHU216HW,2013-08-17 15:46:00,
2013-08-17 11:51:00,88.0,79.5,30.03,North,0,0.0,0.0,76,0.00,,,0.06,WUHU216HW,2013-08-17 15:51:00,
2013-08-17 11:56:00,88.2,79.3,30.03,North,0,0.0,0.0,75,0.00,,,0.06,WUHU216HW,2013-08-17 15:56:00,
2013-08-17 12:01:00,88.2,79.3,30.03,North,0,0.0,0.0,75,0.00,,,0.06,WUHU216HW,2013-08-17 16:01:00,
2013-08-17 12:06:00,88.2,78.8,30.03,North,0,0.0,0.0,74,0.00,,,0.06,WUHU216HW,2013-08-17 16:06:00,
2013-08-17 12:11:00,88.2,78.8,30.03,North,0,0.0,0.0,74,0.00,,,0.06,WUHU216HW,2013-08-17 16:11:00,
2013-08-17 12:16:00,88.6,79.7,30.03,North,0,0.0,0.0,75,0.00,,,0.06,WUHU216HW,2013-08-17 16:16:00,
2013-08-17 12:21:00,88.6,79.7,30.03,North,0,0.0,0.0,75,0.00,,,0.06,WUHU216HW,2013-08-17 16:21:00,
2013-08-17 12:26:00,88.7,79.4,30.02,North,0,0.0,0.0,74,0.00,,,0.06,WUHU216HW,2013-08-17 16:26:00,
2013-08-17 12:31:00,88.9,79.6,30.02,North,0,0.0,0.0,74,0.00,,,0.06,WUHU216HW,2013-08-17 16:31:00,
2013-08-17 12:36:00,89.1,79.3,30.02,North,0,0.0,0.0,73,0.00,,,0.06,WUHU216HW,2013-08-17 16:36:00,
2013-08-17 12:41:00,89.5,79.7,30.02,North,0,0.0,0.0,73,0.00,,,0.06,WUHU216HW,2013-08-17 16:41:00,
2013-08-17 12:46:00,89.5,79.3,30.02,North,0,0.0,0.0,72,0.00,,,0.06,WUHU216HW,2013-08-17 16:46:00,
2013-08-17 12:51:00,89.5,79.3,30.02,North,0,0.0,0.0,72,0.00,,,0.06,WUHU216HW,2013-08-17 16:51:00,
2013-08-17 12:56:00,89.3,79.1,30.01,North,0,0.0,0.0,72,0.00,,,0.06,WUHU216HW,2013-08-17 16:56:00,
2013-08-17 13:01:00,89.3,79.1,30.01,North,0,0.0,0.0,72,0.00,,,0.06,WUHU216HW,2013-08-17 17:01:00,
2013-08-17 13:06:00,89.3,79.1,30.01,North,0,0.0,0.0,72,0.00,,,0.06,WUHU216HW,2013-08-17 17:06:00,
2013-08-17 13:11:00,89.5,79.3,30.01,North,0,0.0,0.0,72,0.00,,,0.06,WUHU216HW,2013-08-17 17:11:00,
2013-08-17 13:16:00,89.6,79.0,30.01,North,0,0.0,0.0,71,0.00,,,0.06,WUHU216HW,2013-08-17 17:16:00,
2013-08-17 13:21:00,89.8,79.2,30.01,North,0,0.0,0.0,71,0.00,,,0.06,WUHU216HW,2013-08-17 17:21:00,
2013-08-17 13:26:00,89.8,78.9,30.01,North,0,0.0,0.0,70,0.00,,,0.06,WUHU216HW,2013-08-17 17:26:00,
2013-08-17 13:31:00,89.6,78.7,30.00,North,0,0.0,0.0,70,0.00,,,0.06,WUHU216HW,2013-08-17 17:31:00,
2013-08-17 13:36:00,89.6,78.7,30.00,North,0,0.0,0.0,70,0.00,,,0.06,WUHU216HW,2013-08-17 17:36:00,
2013-08-17 13:41:00,89.6,78.7,30.00,North,0,0.0,0.0,70,0.00,,,0.06,WUHU216HW,2013-08-17 17:41:00,
2013-08-17 13:46:00,89.6,78.7,30.00,North,0,0.0,0.0,70,0.00,,,0.06,WUHU216HW,2013-08-17 17:46:00,
2013-08-17 13:51:00,89.6,78.7,30.00,North,0,0.0,0.0,70,0.00,,,0.06,WUHU216HW,2013-08-17 17:51:00,
2013-08-17 13:56:00,89.6,78.2,30.00,North,0,0.0,0.0,69,0.00,,,0.06,WUHU216HW,2013-08-17 17:56:00,
2013-08-17 14:01:00,89.5,78.5,30.00,North,0,0.0,0.0,70,0.00,,,0.06,WUHU216HW,2013-08-17 18:01:00,
2013-08-17 14:06:00,89.5,78.5,30.00,North,0,0.0,0.0,70,0.00,,,0.06,WUHU216HW,2013-08-17 18:06:00,
2013-08-17 14:11:00,89.5,78.5,30.00,North,0,0.0,0.0,70,0.00,,,0.06,WUHU216HW,2013-08-17 18:11:00,
2013-08-17 14:16:00,89.5,78.5,30.00,North,0,0.0,0.0,70,0.00,,,0.06,WUHU216HW,2013-08-17 18:16:00,
2013-08-17 14:21:00,89.5,78.5,29.99,North,0,0.0,0.0,70,0.00,,,0.06,WUHU216HW,2013-08-17 18:21:00,
2013-08-17 14:26:00,89.5,78.8,29.99,North,0,0.0,0.0,71,0.00,,,0.06,WUHU216HW,2013-08-17 18:26:00,
2013-08-17 14:31:00,89.6,78.7,29.99,North,0,0.0,0.0,70,0.00,,,0.06,WUHU216HW,2013-08-17 18:31:00,
2013-08-17 14:36:00,89.6,78.2,29.98,North,0,0.0,0.0,69,0.00,,,0.06,WUHU216HW,2013-08-17 18:36:00,
2013-08-17 14:41:00,89.6,78.2,29.98,North,0,0.0,0.0,69,0.00,,,0.06,WUHU216HW,2013-08-17 18:41:00,
2013-08-17 14:46:00,89.8,78.4,29.98,North,0,0.0,0.0,69,0.00,,,0.06,WUHU216HW,2013-08-17 18:46:00,
2013-08-17 14:51:00,89.8,78.4,29.98,North,0,0.0,0.0,69,0.00,,,0.06,WUHU216HW,2013-08-17 18:51:00,
2013-08-17 14:56:00,89.6,77.8,29.97,North,0,0.0,0.0,68,0.00,,,0.06,WUHU216HW,2013-08-17 18:56:00,
2013-08-17 15:01:00,89.6,77.2,29.97,North,0,0.0,0.0,67,0.00,,,0.06,WUHU216HW,2013-08-17 19:01:00,
2013-08-17 15:06:00,89.6,77.2,29.97,North,0,0.0,0.0,67,0.00,,,0.06,WUHU216HW,2013-08-17 19:06:00,
2013-08-17 15:11:00,89.8,77.9,29.97,North,0,0.0,0.0,68,0.00,,,0.06,WUHU216HW,2013-08-17 19:11:00,
2013-08-17 15:16:00,89.8,77.4,29.97,North,0,0.0,0.0,67,0.00,,,0.06,WUHU216HW,2013-08-17 19:16:00,
2013-08-17 15:21:00,89.6,78.2,29.96,North,0,0.0,0.0,69,0.00,,,0.06,WUHU216HW,2013-08-17 19:21:00,
2013-08-17 15:26:00,89.5,78.0,29.96,North,0,0.0,0.0,69,0.00,,,0.06,WUHU216HW,2013-08-17 19:26:00,
2013-08-17 15:31:00,89.3,77.4,29.96,North,0,0.0,0.0,68,0.00,,,0.06,WUHU216HW,2013-08-17 19:31:00,
2013-08-17 15:36:00,89.3,77.4,29.95,North,0,0.0,0.0,68,0.00,,,0.06,WUHU216HW,2013-08-17 19:36:00,
2013-08-17 15:41:00,89.3,77.4,29.95,North,0,0.0,0.0,68,0.00,,,0.06,WUHU216HW,2013-08-17 19:41:00,
2013-08-17 15:46:00,89.3,77.4,29.95,North,0,0.0,0.0,68,0.00,,,0.06,WUHU216HW,2013-08-17 19:46:00,
2013-08-17 15:51:00,89.3,77.4,29.95,North,0,0.0,0.0,68,0.00,,,0.06,WUHU216HW,2013-08-17 19:51:00,
2013-08-17 15:56:00,89.5,77.6,29.95,North,0,0.0,0.0,68,0.00,,,0.06,WUHU216HW,2013-08-17 19:56:00,
2013-08-17 16:01:00,89.3,77.4,29.95,North,0,0.0,0.0,68,0.00,,,0.06,WUHU216HW,2013-08-17 20:01:00,
2013-08-17 16:06:00,89.5,77.0,29.95,North,0,0.0,0.0,67,0.00,,,0.06,WUHU216HW,2013-08-17 20:06:00,
2013-08-17 16:11:00,89.3,77.0,29.95,North,0,0.0,0.0,67,0.00,,,0.06,WUHU216HW,2013-08-17 20:11:00,
2013-08-17 16:16:00,88.9,77.1,29.95,North,0,0.0,0.0,68,0.00,,,0.06,WUHU216HW,2013-08-17 20:16:00,
2013-08-17 16:21:00,88.6,76.7,29.96,North,0,0.0,0.0,68,0.00,,,0.06,WUHU216HW,2013-08-17 20:21:00,
2013-08-17 16:26:00,87.8,77.3,29.96,North,0,0.0,0.0,71,0.06,,,0.12,WUHU216HW,2013-08-17 20:26:00,
2013-08-17 16:31:00,86.6,77.3,29.96,North,0,0.0,0.0,74,0.10,,,0.16,WUHU216HW,2013-08-17 20:31:00,
2013-08-17 16:36:00,85.5,77.0,29.96,North,0,0.0,0.0,76,0.11,,,0.17,WUHU216HW,2013-08-17 20:36:00,
2013-08-17 16:41:00,85.0,77.0,29.96,North,0,0.0,0.0,77,0.12,,,0.18,WUHU216HW,2013-08-17 20:41:00,
2013-08-17 16:46:00,84.6,77.0,29.96,North,0,0.0,0.0,78,0.12,,,0.18,WUHU216HW,2013-08-17 20:46:00,
2013-08-17 16:51:00,84.4,76.8,29.96,North,0,0.0,0.0,78,0.13,,,0.19,WUHU216HW,2013-08-17 20:51:00,
2013-08-17 16:56:00,83.9,76.7,29.96,North,0,0.0,0.0,79,0.13,,,0.19,WUHU216HW,2013-08-17 20:56:00,
2013-08-17 17:01:00,83.7,76.5,29.96,North,0,0.0,0.0,79,0.13,,,0.19,WUHU216HW,2013-08-17 21:01:00,
2013-08-17 17:06:00,83.3,76.6,29.96,North,0,0.0,0.0,80,0.13,,,0.19,WUHU216HW,2013-08-17 21:06:00,
2013-08-17 17:11:00,83.3,77.0,29.97,North,0,0.0,0.0,81,0.13,,,0.19,WUHU216HW,2013-08-17 21:11:00,
2013-08-17 17:16:00,83.3,77.3,29.98,North,0,0.0,0.0,82,0.13,,,0.19,WUHU216HW,2013-08-17 21:16:00,
2013-08-17 17:21:00,83.5,77.5,29.98,North,0,0.0,0.0,82,0.11,,,0.19,WUHU216HW,2013-08-17 21:21:00,
2013-08-17 17:26:00,83.5,77.5,29.98,North,0,0.0,0.0,82,0.04,,,0.19,WUHU216HW,2013-08-17 21:26:00,
2013-08-17 17:31:00,83.5,77.5,29.97,North,0,0.0,0.0,82,0.02,,,0.19,WUHU216HW,2013-08-17 21:31:00,
2013-08-17 17:36:00,83.5,77.5,29.97,North,0,0.0,0.0,82,0.02,,,0.19,WUHU216HW,2013-08-17 21:36:00,
2013-08-17 17:41:00,83.3,77.3,29.97,North,0,0.0,0.0,82,0.01,,,0.19,WUHU216HW,2013-08-17 21:41:00,
2013-08-17 17:46:00,83.0,77.0,29.97,North,0,0.0,0.0,82,0.00,,,0.19,WUHU216HW,2013-08-17 21:46:00,
2013-08-17 17:51:00,83.0,77.0,29.97,North,0,0.0,0.0,82,0.00,,,0.19,WUHU216HW,2013-08-17 21:51:00,
2013-08-17 17:56:00,82.8,76.8,29.98,North,0,0.0,0.0,82,0.00,,,0.19,WUHU216HW,2013-08-17 21:56:00,
2013-08-17 18:01:00,82.6,77.0,29.98,North,0,0.0,0.0,83,0.00,,,0.19,WUHU216HW,2013-08-17 22:01:00,
2013-08-17 18:06:00,82.4,76.5,29.99,North,0,0.0,0.0,82,0.00,,,0.19,WUHU216HW,2013-08-17 22:06:00,
2013-08-17 18:11:00,81.9,76.0,30.00,North,0,0.0,0.0,82,0.00,,,0.19,WUHU216HW,2013-08-17 22:11:00,
2013-08-17 18:16:00,81.7,75.4,30.01,North,0,0.0,0.0,81,0.00,,,0.19,WUHU216HW,2013-08-17 22:16:00,
2013-08-17 18:21:00,81.4,74.7,30.01,North,0,0.0,0.0,80,0.00,,,0.19,WUHU216HW,2013-08-17 22:21:00,
2013-08-17 18:26:00,81.2,74.5,30.01,North,0,0.0,0.0,80,0.00,,,0.19,WUHU216HW,2013-08-17 22:26:00,
2013-08-17 18:31:00,81.0,74.3,30.01,North,0,0.0,0.0,80,0.00,,,0.19,WUHU216HW,2013-08-17 22:31:00,
2013-08-17 18:36:00,80.8,74.2,30.00,North,0,0.0,0.0,80,0.00,,,0.19,WUHU216HW,2013-08-17 22:36:00,
2013-08-17 18:41:00,80.6,74.4,30.00,North,0,0.0,0.0,81,0.00,,,0.19,WUHU216HW,2013-08-17 22:41:00,
2013-08-17 18:46:00,80.3,74.0,30.00,North,0,0.0,0.0,81,0.00,,,0.19,WUHU216HW,2013-08-17 22:46:00,
2013-08-17 18:51:00,80.3,74.0,30.01,North,0,0.0,0.0,81,0.00,,,0.19,WUHU216HW,2013-08-17 22:51:00,
2013-08-17 18:56:00,80.1,73.8,30.01,North,0,0.0,0.0,81,0.00,,,0.19,WUHU216HW,2013-08-17 22:56:00,
2013-08-17 19:01:00,80.1,73.8,30.01,North,0,0.0,0.0,81,0.00,,,0.19,WUHU216HW,2013-08-17 23:01:00,
2013-08-17 19:06:00,79.9,74.0,30.02,North,0,0.0,0.0,82,0.00,,,0.19,WUHU216HW,2013-08-17 23:06:00,
2013-08-17 19:11:00,79.9,73.6,30.02,North,0,0.0,0.0,81,0.00,,,0.19,WUHU216HW,2013-08-17 23:11:00,
2013-08-17 19:16:00,79.9,73.6,30.02,North,0,0.0,0.0,81,0.00,,,0.19,WUHU216HW,2013-08-17 23:16:00,
2013-08-17 19:21:00,79.9,74.0,30.02,North,0,0.0,0.0,82,0.00,,,0.19,WUHU216HW,2013-08-17 23:21:00,
2013-08-17 19:26:00,79.7,73.8,30.03,North,0,0.0,0.0,82,0.00,,,0.19,WUHU216HW,2013-08-17 23:26:00,
2013-08-17 19:31:00,79.7,74.2,30.03,North,0,0.0,0.0,83,0.01,,,0.20,WUHU216HW,2013-08-17 23:31:00,
2013-08-17 19:36:00,79.6,74.0,30.03,North,0,0.0,0.0,83,0.01,,,0.20,WUHU216HW,2013-08-17 23:36:00,
2013-08-17 19:41:00,79.6,74.0,30.03,North,0,0.0,0.0,83,0.01,,,0.20,WUHU216HW,2013-08-17 23:41:00,
2013-08-17 19:46:00,79.6,74.0,30.03,North,0,0.0,0.0,83,0.01,,,0.20,WUHU216HW,2013-08-17 23:46:00,
2013-08-17 19:51:00,79.6,74.0,30.03,North,0,0.0,0.0,83,0.01,,,0.20,WUHU216HW,2013-08-17 23:51:00,
2013-08-17 19:56:00,79.4,73.8,30.03,North,0,0.0,0.0,83,0.01,,,0.20,WUHU216HW,2013-08-17 23:56:00,
2013-08-17 20:01:00,79.2,73.6,30.03,North,0,0.0,0.0,83,0.02,,,0.21,WUHU216HW,2013-08-18 00:01:00,
2013-08-17 20:06:00,79.2,74.0,30.03,North,0,0.0,0.0,84,0.02,,,0.21,WUHU216HW,2013-08-18 00:06:00,
2013-08-17 20:11:00,79.2,74.0,30.03,North,0,0.0,0.0,84,0.02,,,0.21,WUHU216HW,2013-08-18 00:11:00,
2013-08-17 20:16:00,79.2,74.0,30.03,North,0,0.0,0.0,84,0.02,,,0.21,WUHU216HW,2013-08-18 00:16:00,
2013-08-17 20:21:00,79.2,74.4,30.03,North,0,0.0,0.0,85,0.02,,,0.21,WUHU216HW,2013-08-18 00:21:00,
2013-08-17 20:26:00,79.2,74.4,30.03,North,0,0.0,0.0,85,0.01,,,0.21,WUHU216HW,2013-08-18 00:26:00,
2013-08-17 20:31:00,79.2,74.4,30.03,North,0,0.0,0.0,85,0.01,,,0.21,WUHU216HW,2013-08-18 00:31:00,
2013-08-17 20:36:00,79.4,74.5,30.03,North,0,0.0,0.0,85,0.01,,,0.21,WUHU216HW,2013-08-18 00:36:00,
2013-08-17 20:41:00,79.6,74.7,30.03,North,0,0.0,0.0,85,0.01,,,0.21,WUHU216HW,2013-08-18 00:41:00,
2013-08-17 20:46:00,79.6,74.7,30.03,North,0,0.0,0.0,85,0.01,,,0.21,WUHU216HW,2013-08-18 00:46:00,
2013-08-17 20:51:00,79.6,74.7,30.03,North,0,0.0,0.0,85,0.01,,,0.21,WUHU216HW,2013-08-18 00:51:00,
2013-08-17 20:56:00,79.6,74.7,30.03,North,0,0.0,0.0,85,0.01,,,0.21,WUHU216HW,2013-08-18 00:56:00,
2013-08-17 21:01:00,79.6,74.7,30.03,North,0,0.0,0.0,85,0.00,,,0.21,WUHU216HW,2013-08-18 01:01:00,
2013-08-17 21:06:00,79.4,74.5,30.03,North,0,0.0,0.0,85,0.00,,,0.21,WUHU216HW,2013-08-18 01:06:00,
2013-08-17 21:11:00,79.4,74.5,30.03,North,0,0.0,0.0,85,0.00,,,0.21,WUHU216HW,2013-08-18 01:11:00,
2013-08-17 21:16:00,79.4,74.9,30.04,North,0,0.0,0.0,86,0.00,,,0.21,WUHU216HW,2013-08-18 01:16:00,
2013-08-17 21:21:00,79.4,74.9,30.04,North,0,0.0,0.0,86,0.00,,,0.21,WUHU216HW,2013-08-18 01:21:00,
2013-08-17 21:26:00,79.6,75.1,30.04,North,0,0.0,0.0,86,0.00,,,0.21,WUHU216HW,2013-08-18 01:26:00,
2013-08-17 21:31:00,79.6,75.1,30.04,North,0,0.0,0.0,86,0.00,,,0.21,WUHU216HW,2013-08-18 01:31:00,
2013-08-17 21:36:00,79.4,74.9,30.05,North,0,0.0,0.0,86,0.00,,,0.21,WUHU216HW,2013-08-18 01:36:00,
2013-08-17 21:41:00,79.4,74.9,30.05,North,0,0.0,0.0,86,0.00,,,0.21,WUHU216HW,2013-08-18 01:41:00,
2013-08-17 21:46:00,79.4,74.9,30.05,North,0,0.0,0.0,86,0.00,,,0.21,WUHU216HW,2013-08-18 01:46:00,
2013-08-17 21:51:00,79.4,74.9,30.05,North,0,0.0,0.0,86,0.00,,,0.21,WUHU216HW,2013-08-18 01:51:00,
2013-08-17 21:56:00,79.4,75.3,30.05,North,0,0.0,0.0,87,0.00,,,0.21,WUHU216HW,2013-08-18 01:56:00,
2013-08-17 22:01:00,79.4,75.3,30.06,North,0,0.0,0.0,87,0.00,,,0.21,WUHU216HW,2013-08-18 02:01:00,
2013-08-17 22:06:00,79.6,75.3,30.06,North,0,0.0,0.0,87,0.00,,,0.21,WUHU216HW,2013-08-18 02:06:00,
2013-08-17 22:11:00,79.6,75.3,30.06,North,0,0.0,0.0,87,0.00,,,0.21,WUHU216HW,2013-08-18 02:11:00,
2013-08-17 22:16:00,79.6,75.3,30.06,North,0,0.0,0.0,87,0.00,,,0.21,WUHU216HW,2013-08-18 02:16:00,
2013-08-17 22:21:00,79.7,75.5,30.06,North,0,0.0,0.0,87,0.00,,,0.21,WUHU216HW,2013-08-18 02:21:00,
2013-08-17 22:26:00,79.7,75.5,30.06,North,0,0.0,0.0,87,0.00,,,0.21,WUHU216HW,2013-08-18 02:26:00,
2013-08-17 22:31:00,79.7,75.5,30.06,North,0,0.0,0.0,87,0.00,,,0.21,WUHU216HW,2013-08-18 02:31:00,
2013-08-17 22:36:00,79.7,75.5,30.06,North,0,0.0,0.0,87,0.00,,,0.21,WUHU216HW,2013-08-18 02:36:00,
2013-08-17 22:41:00,79.7,75.5,30.06,North,0,0.0,0.0,87,0.00,,,0.21,WUHU216HW,2013-08-18 02:41:00,
2013-08-17 22:46:00,79.7,75.5,30.06,North,0,0.0,0.0,87,0.00,,,0.21,WUHU216HW,2013-08-18 02:46:00,
2013-08-17 22:51:00,79.6,75.3,30.06,North,0,0.0,0.0,87,0.00,,,0.21,WUHU216HW,2013-08-18 02:51:00,
2013-08-17 22:56:00,79.6,75.3,30.06,North,0,0.0,0.0,87,0.00,,,0.21,WUHU216HW,2013-08-18 02:56:00,
2013-08-17 23:01:00,79.6,75.3,30.06,North,0,0.0,0.0,87,0.00,,,0.21,WUHU216HW,2013-08-18 03:01:00,
2013-08-17 23:06:00,79.6,75.3,30.05,North,0,0.0,0.0,87,0.00,,,0.21,WUHU216HW,2013-08-18 03:06:00,
2013-08-17 23:11:00,79.4,75.3,30.05,North,0,0.0,0.0,87,0.00,,,0.21,WUHU216HW,2013-08-18 03:11:00,
2013-08-17 23:16:00,79.4,75.3,30.05,North,0,0.0,0.0,87,0.00,,,0.21,WUHU216HW,2013-08-18 03:16:00,
2013-08-17 23:21:00,79.2,75.1,30.05,North,0,0.0,0.0,87,0.00,,,0.21,WUHU216HW,2013-08-18 03:21:00,
2013-08-17 23:26:00,79.2,75.1,30.04,North,0,0.0,0.0,87,0.00,,,0.21,WUHU216HW,2013-08-18 03:26:00,
2013-08-17 23:31:00,79.0,74.9,30.04,North,0,0.0,0.0,87,0.00,,,0.21,WUHU216HW,2013-08-18 03:31:00,
2013-08-17 23:36:00,79.0,74.9,30.04,North,0,0.0,0.0,87,0.00,,,0.21,WUHU216HW,2013-08-18 03:36:00,
2013-08-17 23:41:00,79.0,74.9,30.04,North,0,0.0,0.0,87,0.00,,,0.21,WUHU216HW,2013-08-18 03:41:00,
2013-08-17 23:46:00,79.0,74.9,30.04,North,0,0.0,0.0,87,0.00,,,0.21,WUHU216HW,2013-08-18 03:46:00,
2013-08-17 23:51:00,78.8,74.7,30.05,North,0,0.0,0.0,87,0.00,,,0.21,WUHU216HW,2013-08-18 03:51:00,
2013-08-17 23:56:00,78.8,74.7,30.05,North,0,0.0,0.0,87,0.00,,,0.21,WUHU216HW,2013-08-18 03:56:00,